Year,Month,Day,Hour,Minute,Value (Times are PST for windspeed in km/hr)
2014,10,23,00,00,2.70
2014,10,23,00,01,7.20
2014,10,23,00,02,3.60
2014,10,23,00,03,5.00
2014,10,23,00,04,8.20
2014,10,23,00,05,6.90
2014,10,23,00,06,6.80
2014,10,23,00,07,5.00
2014,10,23,00,08,4.50
2014,10,23,00,09,7.40
2014,10,23,00,10,7.10
2014,10,23,00,11,6.20
2014,10,23,00,12,7.10
2014,10,23,00,13,5.20
2014,10,23,00,14,8.20
2014,10,23,00,15,4.10
2014,10,23,00,16,3.80
2014,10,23,00,17,7.20
2014,10,23,00,18,7.60
2014,10,23,00,19,5.30
2014,10,23,00,20,4.80
2014,10,23,00,21,5.20
2014,10,23,00,22,6.60
2014,10,23,00,23,6.50
2014,10,23,00,24,8.50
2014,10,23,00,25,5.20
2014,10,23,00,26,3.80
2014,10,23,00,27,5.90
2014,10,23,00,28,8.00
2014,10,23,00,29,7.60
2014,10,23,00,30,7.30
2014,10,23,00,31,7.40
2014,10,23,00,32,6.70
2014,10,23,00,33,7.90
2014,10,23,00,34,7.40
2014,10,23,00,35,3.40
2014,10,23,00,36,6.80
2014,10,23,00,37,5.10
2014,10,23,00,38,7.40
2014,10,23,00,39,6.00
2014,10,23,00,40,6.70
2014,10,23,00,41,8.00
2014,10,23,00,42,7.10
2014,10,23,00,43,6.40
2014,10,23,00,44,6.40
2014,10,23,00,45,6.80
2014,10,23,00,46,7.80
2014,10,23,00,47,6.50
2014,10,23,00,48,4.80
2014,10,23,00,49,8.50
2014,10,23,00,50,6.10
2014,10,23,00,51,6.50
2014,10,23,00,52,4.90
2014,10,23,00,53,6.00
2014,10,23,00,54,7.90
2014,10,23,00,55,7.30
2014,10,23,00,56,5.10
2014,10,23,00,57,6.90
2014,10,23,00,58,6.70
2014,10,23,00,59,11.00
2014,10,23,01,00,7.10
2014,10,23,01,01,7.20
2014,10,23,01,02,4.80
2014,10,23,01,03,4.30
2014,10,23,01,04,8.40
2014,10,23,01,05,6.00
2014,10,23,01,06,3.80
2014,10,23,01,07,5.70
2014,10,23,01,08,5.70
2014,10,23,01,09,6.10
2014,10,23,01,10,3.70
2014,10,23,01,11,5.10
2014,10,23,01,12,5.10
2014,10,23,01,13,5.30
2014,10,23,01,14,1.60
2014,10,23,01,15,2.80
2014,10,23,01,16,2.80
2014,10,23,01,17,4.10
2014,10,23,01,18,4.00
2014,10,23,01,19,3.90
2014,10,23,01,20,3.40
2014,10,23,01,21,2.60
2014,10,23,01,22,1.20
2014,10,23,01,23,2.10
2014,10,23,01,24,2.80
2014,10,23,01,25,3.40
2014,10,23,01,26,1.70
2014,10,23,01,27,1.50
2014,10,23,01,28,1.60
2014,10,23,01,29,1.50
2014,10,23,01,30,5.10
2014,10,23,01,31,0.60
2014,10,23,01,32,1.10
2014,10,23,01,33,3.10
2014,10,23,01,34,3.10
2014,10,23,01,35,0.60
2014,10,23,01,36,2.00
2014,10,23,01,37,1.60
2014,10,23,01,38,3.10
2014,10,23,01,39,1.90
2014,10,23,01,40,1.00
2014,10,23,01,41,1.70
2014,10,23,01,42,0.60
2014,10,23,01,43,1.50
2014,10,23,01,44,1.80
2014,10,23,01,45,1.00
2014,10,23,01,46,3.30
2014,10,23,01,47,3.20
2014,10,23,01,48,4.30
2014,10,23,01,49,4.20
2014,10,23,01,50,3.50
2014,10,23,01,51,3.70
2014,10,23,01,52,2.90
2014,10,23,01,53,2.70
2014,10,23,01,54,4.20
2014,10,23,01,55,2.70
2014,10,23,01,56,3.00
2014,10,23,01,57,2.80
2014,10,23,01,58,3.30
2014,10,23,01,59,2.80
2014,10,23,02,00,1.40
2014,10,23,02,01,2.40
2014,10,23,02,02,2.20
2014,10,23,02,03,1.70
2014,10,23,02,04,0.30
2014,10,23,02,05,0.80
2014,10,23,02,06,0.40
2014,10,23,02,07,1.00
2014,10,23,02,08,0.90
2014,10,23,02,09,0.10
2014,10,23,02,10,0.00
2014,10,23,02,11,0.00
2014,10,23,02,12,0.00
2014,10,23,02,13,0.00
2014,10,23,02,14,0.00
2014,10,23,02,15,0.00
2014,10,23,02,16,0.30
2014,10,23,02,17,0.00
2014,10,23,02,18,0.30
2014,10,23,02,19,0.10
2014,10,23,02,20,0.90
2014,10,23,02,21,0.10
2014,10,23,02,22,0.10
2014,10,23,02,23,0.00
2014,10,23,02,24,0.00
2014,10,23,02,25,0.00
2014,10,23,02,26,0.00
2014,10,23,02,27,0.00
2014,10,23,02,28,0.00
2014,10,23,02,29,0.00
2014,10,23,02,30,0.00
2014,10,23,02,31,0.00
2014,10,23,02,32,0.00
2014,10,23,02,33,0.00
2014,10,23,02,34,0.00
2014,10,23,02,35,0.10
2014,10,23,02,36,1.10
2014,10,23,02,37,1.30
2014,10,23,02,38,0.40
2014,10,23,02,39,0.00
2014,10,23,02,40,0.00
2014,10,23,02,41,0.00
2014,10,23,02,42,0.00
2014,10,23,02,43,0.50
2014,10,23,02,44,0.00
2014,10,23,02,45,0.00
2014,10,23,02,46,0.10
2014,10,23,02,47,0.00
2014,10,23,02,48,0.00
2014,10,23,02,49,0.00
2014,10,23,02,50,0.00
2014,10,23,02,51,0.30
2014,10,23,02,52,1.50
2014,10,23,02,53,0.10
2014,10,23,02,54,0.00
2014,10,23,02,55,0.90
2014,10,23,02,56,1.80
2014,10,23,02,57,0.10
2014,10,23,02,58,1.30
2014,10,23,02,59,1.00
2014,10,23,03,00,0.00
2014,10,23,03,01,0.10
2014,10,23,03,02,0.80
2014,10,23,03,03,0.10
2014,10,23,03,04,0.00
2014,10,23,03,05,0.00
2014,10,23,03,06,0.00
2014,10,23,03,07,0.40
2014,10,23,03,08,1.50
2014,10,23,03,09,1.90
2014,10,23,03,10,2.60
2014,10,23,03,11,1.90
2014,10,23,03,12,0.80
2014,10,23,03,13,0.40
2014,10,23,03,14,0.80
2014,10,23,03,15,1.00
2014,10,23,03,16,1.30
2014,10,23,03,17,1.70
2014,10,23,03,18,1.50
2014,10,23,03,19,1.70
2014,10,23,03,20,0.70
2014,10,23,03,21,1.70
2014,10,23,03,22,1.50
2014,10,23,03,23,2.80
2014,10,23,03,24,3.20
2014,10,23,03,25,0.60
2014,10,23,03,26,0.80
2014,10,23,03,27,0.40
2014,10,23,03,28,1.00
2014,10,23,03,29,0.70
2014,10,23,03,30,0.00
2014,10,23,03,31,0.00
2014,10,23,03,32,0.00
2014,10,23,03,33,0.00
2014,10,23,03,34,0.50
2014,10,23,03,35,1.70
2014,10,23,03,36,0.70
2014,10,23,03,37,0.00
2014,10,23,03,38,0.20
2014,10,23,03,39,0.00
2014,10,23,03,40,0.60
2014,10,23,03,41,1.00
2014,10,23,03,42,1.30
2014,10,23,03,43,0.10
2014,10,23,03,44,0.00
2014,10,23,03,45,0.80
2014,10,23,03,46,0.20
2014,10,23,03,47,0.40
2014,10,23,03,48,0.20
2014,10,23,03,49,0.00
2014,10,23,03,50,0.40
2014,10,23,03,51,1.10
2014,10,23,03,52,0.80
2014,10,23,03,53,0.70
2014,10,23,03,54,1.20
2014,10,23,03,55,2.30
2014,10,23,03,56,1.50
2014,10,23,03,57,0.70
2014,10,23,03,58,2.10
2014,10,23,03,59,0.20
2014,10,23,04,00,0.70
2014,10,23,04,01,0.70
2014,10,23,04,02,1.90
2014,10,23,04,03,2.20
2014,10,23,04,04,1.00
2014,10,23,04,05,1.10
2014,10,23,04,06,0.50
2014,10,23,04,07,0.50
2014,10,23,04,08,0.40
2014,10,23,04,09,1.80
2014,10,23,04,10,2.30
2014,10,23,04,11,2.90
2014,10,23,04,12,2.60
2014,10,23,04,13,4.30
2014,10,23,04,14,2.80
2014,10,23,04,15,3.00
2014,10,23,04,16,4.90
2014,10,23,04,17,3.10
2014,10,23,04,18,3.80
2014,10,23,04,19,5.90
2014,10,23,04,20,6.30
2014,10,23,04,21,6.30
2014,10,23,04,22,7.20
2014,10,23,04,23,5.00
2014,10,23,04,24,5.50
2014,10,23,04,25,8.10
2014,10,23,04,26,8.00
2014,10,23,04,27,4.90
2014,10,23,04,28,6.00
2014,10,23,04,29,5.70
2014,10,23,04,30,6.60
2014,10,23,04,31,6.70
2014,10,23,04,32,7.50
2014,10,23,04,33,8.10
2014,10,23,04,34,6.40
2014,10,23,04,35,7.10
2014,10,23,04,36,3.10
2014,10,23,04,37,7.70
2014,10,23,04,38,6.70
2014,10,23,04,39,3.90
2014,10,23,04,40,7.80
2014,10,23,04,41,6.00
2014,10,23,04,42,5.70
2014,10,23,04,43,5.30
2014,10,23,04,44,6.30
2014,10,23,04,45,3.40
2014,10,23,04,46,3.70
2014,10,23,04,47,5.80
2014,10,23,04,48,7.00
2014,10,23,04,49,4.00
2014,10,23,04,50,4.30
2014,10,23,04,51,4.30
2014,10,23,04,52,7.70
2014,10,23,04,53,8.50
2014,10,23,04,54,5.70
2014,10,23,04,55,4.70
2014,10,23,04,56,4.40
2014,10,23,04,57,3.60
2014,10,23,04,58,3.60
2014,10,23,04,59,6.50
2014,10,23,05,00,3.20
2014,10,23,05,01,3.50
2014,10,23,05,02,4.40
2014,10,23,05,03,5.60
2014,10,23,05,04,4.00
2014,10,23,05,05,2.70
2014,10,23,05,06,3.60
2014,10,23,05,07,4.40
2014,10,23,05,08,8.10
2014,10,23,05,09,5.30
2014,10,23,05,10,2.50
2014,10,23,05,11,4.70
2014,10,23,05,12,6.00
2014,10,23,05,13,6.70
2014,10,23,05,14,5.10
2014,10,23,05,15,4.30
2014,10,23,05,16,4.30
2014,10,23,05,17,3.60
2014,10,23,05,18,2.20
2014,10,23,05,19,4.40
2014,10,23,05,20,3.60
2014,10,23,05,21,4.30
2014,10,23,05,22,3.80
2014,10,23,05,23,3.50
2014,10,23,05,24,4.40
2014,10,23,05,25,4.20
2014,10,23,05,26,5.20
2014,10,23,05,27,3.10
2014,10,23,05,28,4.00
2014,10,23,05,29,4.70
2014,10,23,05,30,5.30
2014,10,23,05,31,4.70
2014,10,23,05,32,2.70
2014,10,23,05,33,5.20
2014,10,23,05,34,5.40
2014,10,23,05,35,3.90
2014,10,23,05,36,2.60
2014,10,23,05,37,3.40
2014,10,23,05,38,2.40
2014,10,23,05,39,3.90
2014,10,23,05,40,3.10
2014,10,23,05,41,5.30
2014,10,23,05,42,3.40
2014,10,23,05,43,2.40
2014,10,23,05,44,3.10
2014,10,23,05,45,2.30
2014,10,23,05,46,3.60
2014,10,23,05,47,0.40
2014,10,23,05,48,2.20
2014,10,23,05,49,0.80
2014,10,23,05,50,4.90
2014,10,23,05,51,5.30
2014,10,23,05,52,2.70
2014,10,23,05,53,2.40
2014,10,23,05,54,7.30
2014,10,23,05,55,4.30
2014,10,23,05,56,1.40
2014,10,23,05,57,0.10
2014,10,23,05,58,4.80
2014,10,23,05,59,3.80
2014,10,23,06,00,1.40
2014,10,23,06,01,1.60
2014,10,23,06,02,1.60
2014,10,23,06,03,0.20
2014,10,23,06,04,1.00
2014,10,23,06,05,2.70
2014,10,23,06,06,1.50
2014,10,23,06,07,0.70
2014,10,23,06,08,0.60
2014,10,23,06,09,3.20
2014,10,23,06,10,2.60
2014,10,23,06,11,3.10
2014,10,23,06,12,2.50
2014,10,23,06,13,2.20
2014,10,23,06,14,2.10
2014,10,23,06,15,4.30
2014,10,23,06,16,2.10
2014,10,23,06,17,0.20
2014,10,23,06,18,1.80
2014,10,23,06,19,0.60
2014,10,23,06,20,5.10
2014,10,23,06,21,4.60
2014,10,23,06,22,3.60
2014,10,23,06,23,2.00
2014,10,23,06,24,3.00
2014,10,23,06,25,1.40
2014,10,23,06,26,1.00
2014,10,23,06,27,1.40
2014,10,23,06,28,0.80
2014,10,23,06,29,2.50
2014,10,23,06,30,1.90
2014,10,23,06,31,0.10
2014,10,23,06,32,1.50
2014,10,23,06,33,1.50
2014,10,23,06,34,0.00
2014,10,23,06,35,0.70
2014,10,23,06,36,2.70
2014,10,23,06,37,0.20
2014,10,23,06,38,0.20
2014,10,23,06,39,1.80
2014,10,23,06,40,1.00
2014,10,23,06,41,0.30
2014,10,23,06,42,2.30
2014,10,23,06,43,0.40
2014,10,23,06,44,1.30
2014,10,23,06,45,2.80
2014,10,23,06,46,1.90
2014,10,23,06,47,1.80
2014,10,23,06,48,1.70
2014,10,23,06,49,1.60
2014,10,23,06,50,2.70
2014,10,23,06,51,2.10
2014,10,23,06,52,1.60
2014,10,23,06,53,1.30
2014,10,23,06,54,1.10
2014,10,23,06,55,0.70
2014,10,23,06,56,0.90
2014,10,23,06,57,1.50
2014,10,23,06,58,1.70
2014,10,23,06,59,3.00
2014,10,23,07,00,1.90
2014,10,23,07,01,1.00
2014,10,23,07,02,0.10
2014,10,23,07,03,0.70
2014,10,23,07,04,0.80
2014,10,23,07,05,0.20
2014,10,23,07,06,1.20
2014,10,23,07,07,0.60
2014,10,23,07,08,0.40
2014,10,23,07,09,0.20
2014,10,23,07,10,1.20
2014,10,23,07,11,1.40
2014,10,23,07,12,1.20
2014,10,23,07,13,1.00
2014,10,23,07,14,0.10
2014,10,23,07,15,0.00
2014,10,23,07,16,0.00
2014,10,23,07,17,0.00
2014,10,23,07,18,0.00
2014,10,23,07,19,0.00
2014,10,23,07,20,0.00
2014,10,23,07,21,0.20
2014,10,23,07,22,0.00
2014,10,23,07,23,0.00
2014,10,23,07,24,0.00
2014,10,23,07,25,0.00
2014,10,23,07,26,0.00
2014,10,23,07,27,0.00
2014,10,23,07,28,0.00
2014,10,23,07,29,0.00
2014,10,23,07,30,0.00
2014,10,23,07,31,0.00
2014,10,23,07,32,0.50
2014,10,23,07,33,0.20
2014,10,23,07,34,0.00
2014,10,23,07,35,0.00
2014,10,23,07,36,0.00
2014,10,23,07,37,0.00
2014,10,23,07,38,0.00
2014,10,23,07,39,0.00
2014,10,23,07,40,0.00
2014,10,23,07,41,0.40
2014,10,23,07,42,1.20
2014,10,23,07,43,1.20
2014,10,23,07,44,0.60
2014,10,23,07,45,0.30
2014,10,23,07,46,0.00
2014,10,23,07,47,0.10
2014,10,23,07,48,0.00
2014,10,23,07,49,0.00
2014,10,23,07,50,0.00
2014,10,23,07,51,0.00
2014,10,23,07,52,0.00
2014,10,23,07,53,0.00
2014,10,23,07,54,0.00
2014,10,23,07,55,0.00
2014,10,23,07,56,0.10
2014,10,23,07,57,0.00
2014,10,23,07,58,0.00
2014,10,23,07,59,0.00
2014,10,23,08,00,0.00
2014,10,23,08,01,0.00
2014,10,23,08,02,0.80
2014,10,23,08,03,0.50
2014,10,23,08,04,0.50
2014,10,23,08,05,0.20
2014,10,23,08,06,0.00
2014,10,23,08,07,0.00
2014,10,23,08,08,0.00
2014,10,23,08,09,0.00
2014,10,23,08,10,0.00
2014,10,23,08,11,0.00
2014,10,23,08,12,0.00
2014,10,23,08,13,0.00
2014,10,23,08,14,0.00
2014,10,23,08,15,0.00
2014,10,23,08,16,0.00
2014,10,23,08,17,0.00
2014,10,23,08,18,0.00
2014,10,23,08,19,0.00
2014,10,23,08,20,0.00
2014,10,23,08,21,0.00
2014,10,23,08,22,0.00
2014,10,23,08,23,0.00
2014,10,23,08,24,0.00
2014,10,23,08,25,0.00
2014,10,23,08,26,0.00
2014,10,23,08,27,0.00
2014,10,23,08,28,1.70
2014,10,23,08,29,2.70
2014,10,23,08,30,1.90
2014,10,23,08,31,0.40
2014,10,23,08,32,0.60
2014,10,23,08,33,1.80
2014,10,23,08,34,0.80
2014,10,23,08,35,0.00
2014,10,23,08,36,0.50
2014,10,23,08,37,0.20
2014,10,23,08,38,0.00
2014,10,23,08,39,0.20
2014,10,23,08,40,0.40
2014,10,23,08,41,1.90
2014,10,23,08,42,2.00
2014,10,23,08,43,1.50
2014,10,23,08,44,0.90
2014,10,23,08,45,0.30
2014,10,23,08,46,0.30
2014,10,23,08,47,0.40
2014,10,23,08,48,0.00
2014,10,23,08,49,0.50
2014,10,23,08,50,1.90
2014,10,23,08,51,0.20
2014,10,23,08,52,1.10
2014,10,23,08,53,0.70
2014,10,23,08,54,1.20
2014,10,23,08,55,0.50
2014,10,23,08,56,0.20
2014,10,23,08,57,1.40
2014,10,23,08,58,1.30
2014,10,23,08,59,1.00
2014,10,23,09,00,1.50
2014,10,23,09,01,1.20
2014,10,23,09,02,0.10
2014,10,23,09,03,0.00
2014,10,23,09,04,1.60
2014,10,23,09,05,2.20
2014,10,23,09,06,0.50
2014,10,23,09,07,0.20
2014,10,23,09,08,1.00
2014,10,23,09,09,1.30
2014,10,23,09,10,1.30
2014,10,23,09,11,1.50
2014,10,23,09,12,2.00
2014,10,23,09,13,2.10
2014,10,23,09,14,3.10
2014,10,23,09,15,2.30
2014,10,23,09,16,2.30
2014,10,23,09,17,3.10
2014,10,23,09,18,2.40
2014,10,23,09,19,2.90
2014,10,23,09,20,4.60
2014,10,23,09,21,4.20
2014,10,23,09,22,2.90
2014,10,23,09,23,3.40
2014,10,23,09,24,3.90
2014,10,23,09,25,4.50
2014,10,23,09,26,5.70
2014,10,23,09,27,5.00
2014,10,23,09,28,4.60
2014,10,23,09,29,3.10
2014,10,23,09,30,2.80
2014,10,23,09,31,3.90
2014,10,23,09,32,3.30
2014,10,23,09,33,3.40
2014,10,23,09,34,3.60
2014,10,23,09,35,3.30
2014,10,23,09,36,4.20
2014,10,23,09,37,2.00
2014,10,23,09,38,1.80
2014,10,23,09,39,1.70
2014,10,23,09,40,1.40
2014,10,23,09,41,1.30
2014,10,23,09,42,2.30
2014,10,23,09,43,2.10
2014,10,23,09,44,1.60
2014,10,23,09,45,0.70
2014,10,23,09,46,0.70
2014,10,23,09,47,1.90
2014,10,23,09,48,1.30
2014,10,23,09,49,1.90
2014,10,23,09,50,1.50
2014,10,23,09,51,0.50
2014,10,23,09,52,1.70
2014,10,23,09,53,0.50
2014,10,23,09,54,1.40
2014,10,23,09,55,2.80
2014,10,23,09,56,3.00
2014,10,23,09,57,2.20
2014,10,23,09,58,1.60
2014,10,23,09,59,2.20
2014,10,23,10,00,3.80
2014,10,23,10,01,3.10
2014,10,23,10,02,2.40
2014,10,23,10,03,1.70
2014,10,23,10,04,2.00
2014,10,23,10,05,4.00
2014,10,23,10,06,2.60
2014,10,23,10,07,1.60
2014,10,23,10,08,0.60
2014,10,23,10,09,1.10
2014,10,23,10,10,2.10
2014,10,23,10,11,2.90
2014,10,23,10,12,2.20
2014,10,23,10,13,0.50
2014,10,23,10,14,1.80
2014,10,23,10,15,3.60
2014,10,23,10,16,3.40
2014,10,23,10,17,3.70
2014,10,23,10,18,1.20
2014,10,23,10,19,2.30
2014,10,23,10,20,2.90
2014,10,23,10,21,4.10
2014,10,23,10,22,2.20
2014,10,23,10,23,0.20
2014,10,23,10,24,1.20
2014,10,23,10,25,1.50
2014,10,23,10,26,1.00
2014,10,23,10,27,1.60
2014,10,23,10,28,2.00
2014,10,23,10,29,2.60
2014,10,23,10,30,2.30
2014,10,23,10,31,0.90
2014,10,23,10,32,1.10
2014,10,23,10,33,2.40
2014,10,23,10,34,2.90
2014,10,23,10,35,1.80
2014,10,23,10,36,0.90
2014,10,23,10,37,0.20
2014,10,23,10,38,0.90
2014,10,23,10,39,3.30
2014,10,23,10,40,2.70
2014,10,23,10,41,1.70
2014,10,23,10,42,2.70
2014,10,23,10,43,2.00
2014,10,23,10,44,0.90
2014,10,23,10,45,1.20
2014,10,23,10,46,2.10
2014,10,23,10,47,3.30
2014,10,23,10,48,2.60
2014,10,23,10,49,2.80
2014,10,23,10,50,3.00
2014,10,23,10,51,2.00
2014,10,23,10,52,2.30
2014,10,23,10,53,0.90
2014,10,23,10,54,1.80
2014,10,23,10,55,2.30
2014,10,23,10,56,2.10
2014,10,23,10,57,4.80
2014,10,23,10,58,5.00
2014,10,23,10,59,2.60
2014,10,23,11,00,1.60
2014,10,23,11,01,1.30
2014,10,23,11,02,1.80
2014,10,23,11,03,2.80
2014,10,23,11,04,3.30
2014,10,23,11,05,3.90
2014,10,23,11,06,1.40
2014,10,23,11,07,0.90
2014,10,23,11,08,0.50
2014,10,23,11,09,0.90
2014,10,23,11,10,0.60
2014,10,23,11,11,0.10
2014,10,23,11,12,1.80
2014,10,23,11,13,1.00
2014,10,23,11,14,2.60
2014,10,23,11,15,3.30
2014,10,23,11,16,3.10
2014,10,23,11,17,2.10
2014,10,23,11,18,5.50
2014,10,23,11,19,3.40
2014,10,23,11,20,6.70
2014,10,23,11,21,3.10
2014,10,23,11,22,6.70
2014,10,23,11,23,4.90
2014,10,23,11,24,4.80
2014,10,23,11,25,4.90
2014,10,23,11,26,6.90
2014,10,23,11,27,7.00
2014,10,23,11,28,4.60
2014,10,23,11,29,5.30
2014,10,23,11,30,5.20
2014,10,23,11,31,5.10
2014,10,23,11,32,6.40
2014,10,23,11,33,4.70
2014,10,23,11,34,5.90
2014,10,23,11,35,6.40
2014,10,23,11,36,6.90
2014,10,23,11,37,4.90
2014,10,23,11,38,2.70
2014,10,23,11,39,4.10
2014,10,23,11,40,5.90
2014,10,23,11,41,3.50
2014,10,23,11,42,4.10
2014,10,23,11,43,6.80
2014,10,23,11,44,4.60
2014,10,23,11,45,2.40
2014,10,23,11,46,4.40
2014,10,23,11,47,3.10
2014,10,23,11,48,1.30
2014,10,23,11,49,1.30
2014,10,23,11,50,3.60
2014,10,23,11,51,2.30
2014,10,23,11,52,2.10
2014,10,23,11,53,0.80
2014,10,23,11,54,1.20
2014,10,23,11,55,1.00
2014,10,23,11,56,2.00
2014,10,23,11,57,3.40
2014,10,23,11,58,3.30
2014,10,23,11,59,3.80
2014,10,23,12,00,1.60
2014,10,23,12,01,3.10
2014,10,23,12,02,2.60
2014,10,23,12,03,4.40
2014,10,23,12,04,3.50
2014,10,23,12,05,4.70
2014,10,23,12,06,3.70
2014,10,23,12,07,5.60
2014,10,23,12,08,3.40
2014,10,23,12,09,4.70
2014,10,23,12,10,4.50
2014,10,23,12,11,4.00
2014,10,23,12,12,9.30
2014,10,23,12,13,10.40
2014,10,23,12,14,11.20
2014,10,23,12,15,6.40
2014,10,23,12,16,7.30
2014,10,23,12,17,9.80
2014,10,23,12,18,8.90
2014,10,23,12,19,11.90
2014,10,23,12,20,9.30
2014,10,23,12,21,6.70
2014,10,23,12,22,4.70
2014,10,23,12,23,8.00
2014,10,23,12,24,8.60
2014,10,23,12,25,12.20
2014,10,23,12,26,9.70
2014,10,23,12,27,7.00
2014,10,23,12,28,6.90
2014,10,23,12,29,4.70
2014,10,23,12,30,2.50
2014,10,23,12,31,3.00
2014,10,23,12,32,3.80
2014,10,23,12,33,4.70
2014,10,23,12,34,4.10
2014,10,23,12,35,3.50
2014,10,23,12,36,5.70
2014,10,23,12,37,4.10
2014,10,23,12,38,5.40
2014,10,23,12,39,5.20
2014,10,23,12,40,4.80
2014,10,23,12,41,3.60
2014,10,23,12,42,7.10
2014,10,23,12,43,4.80
2014,10,23,12,44,7.20
2014,10,23,12,45,5.30
2014,10,23,12,46,4.50
2014,10,23,12,47,4.80
2014,10,23,12,48,3.40
2014,10,23,12,49,5.40
2014,10,23,12,50,10.00
2014,10,23,12,51,7.20
2014,10,23,12,52,5.00
2014,10,23,12,53,5.70
2014,10,23,12,54,5.70
2014,10,23,12,55,6.40
2014,10,23,12,56,6.40
2014,10,23,12,57,5.20
2014,10,23,12,58,6.20
2014,10,23,12,59,5.70
2014,10,23,13,00,8.30
2014,10,23,13,01,4.90
2014,10,23,13,02,6.10
2014,10,23,13,03,9.00
2014,10,23,13,04,5.90
2014,10,23,13,05,7.40
2014,10,23,13,06,8.70
2014,10,23,13,07,11.80
2014,10,23,13,08,5.20
2014,10,23,13,09,6.10
2014,10,23,13,10,4.30
2014,10,23,13,11,7.30
2014,10,23,13,12,5.20
2014,10,23,13,13,4.90
2014,10,23,13,14,5.30
2014,10,23,13,15,4.50
2014,10,23,13,16,4.40
2014,10,23,13,17,4.20
2014,10,23,13,18,6.30
2014,10,23,13,19,9.80
2014,10,23,13,20,5.50
2014,10,23,13,21,7.10
2014,10,23,13,22,11.30
2014,10,23,13,23,6.80
2014,10,23,13,24,4.30
2014,10,23,13,25,5.10
2014,10,23,13,26,9.70
2014,10,23,13,27,7.80
2014,10,23,13,28,9.00
2014,10,23,13,29,6.00
2014,10,23,13,30,7.60
2014,10,23,13,31,7.20
2014,10,23,13,32,7.60
2014,10,23,13,33,7.10
2014,10,23,13,34,12.70
2014,10,23,13,35,7.00
2014,10,23,13,36,6.10
2014,10,23,13,37,7.80
2014,10,23,13,38,2.80
2014,10,23,13,39,5.20
2014,10,23,13,40,11.40
2014,10,23,13,41,7.90
2014,10,23,13,42,5.30
2014,10,23,13,43,4.60
2014,10,23,13,44,4.00
2014,10,23,13,45,2.10
2014,10,23,13,46,7.00
2014,10,23,13,47,6.70
2014,10,23,13,48,8.70
2014,10,23,13,49,9.60
2014,10,23,13,50,9.80
2014,10,23,13,51,5.90
2014,10,23,13,52,7.60
2014,10,23,13,53,7.50
2014,10,23,13,54,6.10
2014,10,23,13,55,7.20
2014,10,23,13,56,6.40
2014,10,23,13,57,5.80
2014,10,23,13,58,5.80
2014,10,23,13,59,7.20
2014,10,23,14,00,7.60
2014,10,23,14,01,7.20
2014,10,23,14,02,5.70
2014,10,23,14,03,9.30
2014,10,23,14,04,9.90
2014,10,23,14,05,5.90
2014,10,23,14,06,4.70
2014,10,23,14,07,8.20
2014,10,23,14,08,7.90
2014,10,23,14,09,5.70
2014,10,23,14,10,6.70
2014,10,23,14,11,8.20
2014,10,23,14,12,5.30
2014,10,23,14,13,5.60
2014,10,23,14,14,8.70
2014,10,23,14,15,4.40
2014,10,23,14,16,4.00
2014,10,23,14,17,4.50
2014,10,23,14,18,4.90
2014,10,23,14,19,9.00
2014,10,23,14,20,5.70
2014,10,23,14,21,3.70
2014,10,23,14,22,4.40
2014,10,23,14,23,3.80
2014,10,23,14,24,4.90
2014,10,23,14,25,9.00
2014,10,23,14,26,6.50
2014,10,23,14,27,8.50
2014,10,23,14,28,8.90
2014,10,23,14,29,4.60
2014,10,23,14,30,9.90
2014,10,23,14,31,11.90
2014,10,23,14,32,9.20
2014,10,23,14,33,5.30
2014,10,23,14,34,2.60
2014,10,23,14,35,4.10
2014,10,23,14,36,2.60
2014,10,23,14,37,3.10
2014,10,23,14,38,7.70
2014,10,23,14,39,5.10
2014,10,23,14,40,5.30
2014,10,23,14,41,6.60
2014,10,23,14,42,3.90
2014,10,23,14,43,3.80
2014,10,23,14,44,5.70
2014,10,23,14,45,6.90
2014,10,23,14,46,4.10
2014,10,23,14,47,3.20
2014,10,23,14,48,1.60
2014,10,23,14,49,6.60
2014,10,23,14,50,13.40
2014,10,23,14,51,4.50
2014,10,23,14,52,8.20
2014,10,23,14,53,6.90
2014,10,23,14,54,1.70
2014,10,23,14,55,4.80
2014,10,23,14,56,3.50
2014,10,23,14,57,8.50
2014,10,23,14,58,5.00
2014,10,23,14,59,4.20
2014,10,23,15,00,6.70
2014,10,23,15,01,6.30
2014,10,23,15,02,2.20
2014,10,23,15,03,3.50
2014,10,23,15,04,8.00
2014,10,23,15,05,4.20
2014,10,23,15,06,2.90
2014,10,23,15,07,3.10
2014,10,23,15,08,1.10
2014,10,23,15,09,2.40
2014,10,23,15,10,4.00
2014,10,23,15,11,3.70
2014,10,23,15,12,4.50
2014,10,23,15,13,3.30
2014,10,23,15,14,2.20
2014,10,23,15,15,3.60
2014,10,23,15,16,1.60
2014,10,23,15,17,3.00
2014,10,23,15,18,6.30
2014,10,23,15,19,3.80
2014,10,23,15,20,8.40
2014,10,23,15,21,6.10
2014,10,23,15,22,6.20
2014,10,23,15,23,8.30
2014,10,23,15,24,5.50
2014,10,23,15,25,4.00
2014,10,23,15,26,2.30
2014,10,23,15,27,5.60
2014,10,23,15,28,5.90
2014,10,23,15,29,3.10
2014,10,23,15,30,2.50
2014,10,23,15,31,7.50
2014,10,23,15,32,4.80
2014,10,23,15,33,5.80
2014,10,23,15,34,6.00
2014,10,23,15,35,4.20
2014,10,23,15,36,4.80
2014,10,23,15,37,3.20
2014,10,23,15,38,7.30
2014,10,23,15,39,9.70
2014,10,23,15,40,7.90
2014,10,23,15,41,4.70
2014,10,23,15,42,4.40
2014,10,23,15,43,7.20
2014,10,23,15,44,4.90
2014,10,23,15,45,3.30
2014,10,23,15,46,3.80
2014,10,23,15,47,4.30
2014,10,23,15,48,4.60
2014,10,23,15,49,7.10
2014,10,23,15,50,3.10
2014,10,23,15,51,1.60
2014,10,23,15,52,3.10
2014,10,23,15,53,5.10
2014,10,23,15,54,2.10
2014,10,23,15,55,3.90
2014,10,23,15,56,4.10
2014,10,23,15,57,2.50
2014,10,23,15,58,5.40
2014,10,23,15,59,3.70
2014,10,23,16,00,0.70
2014,10,23,16,01,1.20
2014,10,23,16,02,1.90
2014,10,23,16,03,3.50
2014,10,23,16,04,4.90
2014,10,23,16,05,3.30
2014,10,23,16,06,7.80
2014,10,23,16,07,4.50
2014,10,23,16,08,5.90
2014,10,23,16,09,7.10
2014,10,23,16,10,8.20
2014,10,23,16,11,2.80
2014,10,23,16,12,5.10
2014,10,23,16,13,5.50
2014,10,23,16,14,5.90
2014,10,23,16,15,8.20
2014,10,23,16,16,8.50
2014,10,23,16,17,9.70
2014,10,23,16,18,9.30
2014,10,23,16,19,16.10
2014,10,23,16,20,11.30
2014,10,23,16,21,13.30
2014,10,23,16,22,9.20
2014,10,23,16,23,7.90
2014,10,23,16,24,7.80
2014,10,23,16,25,7.60
2014,10,23,16,26,9.00
2014,10,23,16,27,7.60
2014,10,23,16,28,7.60
2014,10,23,16,29,6.00
2014,10,23,16,30,7.30
2014,10,23,16,31,7.00
2014,10,23,16,32,6.50
2014,10,23,16,33,7.30
2014,10,23,16,34,5.40
2014,10,23,16,35,7.50
2014,10,23,16,36,6.90
2014,10,23,16,37,8.30
2014,10,23,16,38,5.50
2014,10,23,16,39,8.30
2014,10,23,16,40,5.60
2014,10,23,16,41,7.10
2014,10,23,16,42,4.30
2014,10,23,16,43,7.50
2014,10,23,16,44,9.60
2014,10,23,16,45,4.00
2014,10,23,16,46,5.00
2014,10,23,16,47,6.00
2014,10,23,16,48,9.20
2014,10,23,16,49,6.70
2014,10,23,16,50,5.00
2014,10,23,16,51,8.00
2014,10,23,16,52,7.80
2014,10,23,16,53,7.90
2014,10,23,16,54,5.60
2014,10,23,16,55,4.80
2014,10,23,16,56,9.70
2014,10,23,16,57,5.70
2014,10,23,16,58,6.40
2014,10,23,16,59,5.00
2014,10,23,17,00,6.50
2014,10,23,17,01,4.60
2014,10,23,17,02,6.10
2014,10,23,17,03,2.70
2014,10,23,17,04,3.50
2014,10,23,17,05,2.30
2014,10,23,17,06,4.40
2014,10,23,17,07,5.00
2014,10,23,17,08,5.20
2014,10,23,17,09,7.60
2014,10,23,17,10,4.50
2014,10,23,17,11,6.30
2014,10,23,17,12,4.60
2014,10,23,17,13,2.90
2014,10,23,17,14,6.50
2014,10,23,17,15,3.70
2014,10,23,17,16,3.30
2014,10,23,17,17,3.40
2014,10,23,17,18,3.00
2014,10,23,17,19,4.50
2014,10,23,17,20,1.80
2014,10,23,17,21,2.00
2014,10,23,17,22,0.80
2014,10,23,17,23,0.60
2014,10,23,17,24,1.00
2014,10,23,17,25,0.50
2014,10,23,17,26,0.40
2014,10,23,17,27,3.90
2014,10,23,17,28,2.40
2014,10,23,17,29,1.50
2014,10,23,17,30,1.90
2014,10,23,17,31,1.70
2014,10,23,17,32,1.40
2014,10,23,17,33,2.40
2014,10,23,17,34,1.60
2014,10,23,17,35,1.40
2014,10,23,17,36,1.90
2014,10,23,17,37,2.50
2014,10,23,17,38,2.20
2014,10,23,17,39,1.20
2014,10,23,17,40,1.20
2014,10,23,17,41,2.20
2014,10,23,17,42,2.90
2014,10,23,17,43,4.80
2014,10,23,17,44,2.60
2014,10,23,17,45,4.30
2014,10,23,17,46,3.20
2014,10,23,17,47,1.50
2014,10,23,17,48,1.50
2014,10,23,17,49,3.10
2014,10,23,17,50,2.50
2014,10,23,17,51,0.60
2014,10,23,17,52,0.60
2014,10,23,17,53,3.40
2014,10,23,17,54,2.60
2014,10,23,17,55,3.30
2014,10,23,17,56,2.30
2014,10,23,17,57,2.60
2014,10,23,17,58,1.10
2014,10,23,17,59,2.50
2014,10,23,18,00,3.20
2014,10,23,18,01,2.40
2014,10,23,18,02,2.30
2014,10,23,18,03,3.10
2014,10,23,18,04,2.80
2014,10,23,18,05,0.90